Atlantic - Newfoundland: Past 24 Hour Conditions

 

Argentia

03:30 AM NDT 22 October 2014
This table is a summary of hourly weather conditions for the past 24 hours.
Date / Time
(NDT)
Wind(knots) Conditions Visibility(km) Pressure(kPa) Air tempC) Relative humidity(%) Dew pointC)
22 October 2014
3:30 WNW 7 N/A N/A 102.7 9 77 5
2:30 WNW 11 N/A N/A 102.7 9 73 4
1:30 WNW 9 N/A N/A 102.7 9 71 4
0:30 WNW 10 N/A N/A 102.6 9 73 5
21 October 2014
23:30 WNW 12 N/A N/A 102.5 10 69 4
22:30 WNW 11 N/A N/A 102.5 10 70 5
21:30 WNW 14 gust 19 N/A N/A 102.4 10 70 5
20:30 W 14 N/A N/A 102.3 10 72 5
19:30 W 14 gust 19 N/A N/A 102.3 10 72 5
18:30 WNW 12 gust 17 N/A N/A 102.1 10 75 6
17:30 W 14 N/A N/A 102.0 10 73 6
16:30 WNW 16 N/A N/A 101.9 10 70 5
15:30 W 17 gust 23 N/A N/A 101.9 10 72 6
14:30 W 17 N/A N/A 101.9 11 71 5
13:30 W 19 gust 25 N/A N/A 101.8 10 72 6
12:30 W 21 N/A N/A 101.8 10 72 5
11:30 WSW 22 gust 27 N/A N/A 101.7 10 76 6
10:30 WSW 22 N/A N/A 101.6 10 77 6
9:30 WSW 23 gust 29 N/A N/A 101.6 10 76 6
8:30 WSW 24 N/A N/A 101.5 10 80 6
7:30 W 25 gust 36 N/A N/A 101.4 9 82 6
6:30 WSW 26 gust 31 N/A N/A 101.3 9 80 6
5:30 WSW 30 gust 35 N/A N/A 101.1 9 78 6
4:30 WSW 30 gust 37 N/A N/A 101.1 10 75 5
3:30 WSW 29 gust 36 N/A N/A 101.0 10 75 5
 
Map of Atlantic - Newfoundland marine weather areas Southwestern Grand Banks - 44138 Banquereau - 44139 Tail of the Bank - 44140 Nickerson Bank - 44251 Northeast Burgeo Bank - 44255 Blanc-Sablon Airport Cap Whittle Chevery Natashquan Airport Heath Point Miscou Island Grand Étang Ingonish Beach North Mountain St.Paul Island J.A. Douglas McCurdy Sydney Airport Charlottetown Airport East Point North Cape Argentia Bonavista Burgeo Cape Race Corner Brook Daniel's Harbour Englee Ferolle Point La Scie Port aux Basques Rocky Harbour Sagona Island St. Anthony Airport St. John's Int'l Airport St. Lawrence Stephenville Airport Twillingate Winterland Wreckhouse Cartwright Airport Mary's Harbour Grates Cove Pool's Island Marticot Island Long Pond Îles de la Madeleine Airport
Legend: buoyBuoy land stationLand Station